090  
ASUS43 KLSX 221807  
RWRMO  
 
WEATHER SUMMARY FOR MISSOURI  
NATIONAL WEATHER SERVICE SPRINGFIELD MO  
100 PM CDT MON JUL 22 2019  
 
NOTE: "FAIR" INDICATES FEW OR NO CLOUDS BELOW 12,000 FEET WITH NO  
SIGNIFICANT WEATHER AND/OR S TO VISIBILITY
.  
CURRENT SKY AND/OR WEATHER CONDITIONS ARE NOT AVAILABLE FOR  
CHILLICOTHE AND FARMINGTON.  
 
MOZ001>031-035>038-043-044-053-054-221900-   
..NORTHERN AND WESTERN MISSOURI
 
 
 
CITY SKY/WX TMP DP RH WIND PRES REMARKS
 
KANSAS CTY INT MOSUNNY 80 64 58 N14 30.17S  
6HR MIN TEMP: 66; 6HR MAX TEMP: 81;  
 
KANSAS C DTWN MOSUNNY 81 61 50 N16 30.15S  
6HR MIN TEMP: 69; 6HR MAX TEMP: 82;  
 
LEE'S SUMMIT PTSUNNY 79 61 53 N16 30.16S  
6HR MIN TEMP: 67; 6HR MAX TEMP: 81;  
 
ST JOSEPH MOSUNNY 80 62 54 N13G23 30.19R  
6HR MIN TEMP: 67; 6HR MAX TEMP: 80;  
 
CHILLICOTHE N/A 80 62 54 N12G21 30.15S  
6HR MIN TEMP: 68; 6HR MAX TEMP: 82;  
 
KIRKSVILLE MOSUNNY 80 61 52 N15 30.13S  
6HR MIN TEMP: 66; 6HR MAX TEMP: 82;  
 
 

 
MOZ066>068-077>081-088>096-101>105-221900-   
..SOUTHWEST MISSOURI
 
 
 
CITY SKY/WX TMP DP RH WIND PRES REMARKS
 
SPRINGFIELD MOSUNNY 79 63 57 NE18G26 30.09R  
6HR MIN TEMP: 70; 6HR MAX TEMP: 79; 6HR PCP: 0.22;  
 
JOPLIN MOSUNNY 79 65 62 NE15G25 30.11S  
6HR MIN TEMP: 71; 6HR MAX TEMP: 79; 6HR PCP: 0.05;  
 
BRANSON PTSUNNY 73 70 88 N14 30.07R  
 

 
MOZ032>034-039>042-045>050-055>058-069>072-221900-   
..CENTRAL MISSOURI
 
 
 
CITY SKY/WX TMP DP RH WIND PRES REMARKS
 
COLUMBIA SUNNY 82 61 48 N18 30.09S  
6HR MIN TEMP: 68; 6HR MAX TEMP: 82; 6HR PCP: TRACE;  
 
ROLLA SUNNY 78 63 59 N12 30.08S  
6HR MIN TEMP: 66; 6HR MAX TEMP: 78; 6HR PCP: 0.02;  
 
SEDALIA MOSUNNY 77 63 61 N15 30.13S  
6HR MIN TEMP: 66; 6HR MAX TEMP: 78;  
 
WHITEMAN AFB MOSUNNY 80 63 56 NE18 30.08F  
WARRENSBURG MOSUNNY 79 61 53 N15 30.13F  
OSAGE BEACH MOSUNNY 80 64 58 N9G16 30.09S  
 

 
MOZ051-052-059>065-221900-   
..EAST CENTRAL MISSOURI
 
 
 
CITY SKY/WX TMP DP RH WIND PRES REMARKS
 
ST LOUIS INTL MOSUNNY 78 61 55 VRB3 30.05S  
6HR MIN TEMP: 66; 6HR MAX TEMP: 78; 6HR PCP: 0.27;  
 
SPIRIT OF STL MOSUNNY 77 62 59 CALM 30.04S  
6HR MIN TEMP: 68; 6HR MAX TEMP: 78; 6HR PCP: 0.97;  
 
ST CHARLES N/A N/A N/A N/A MISG 30.03S  
 

 
MOZ072>076-082>087-097>100-106>115-221900-   
..SOUTH CENTRAL AND SOUTHEAST MISSOURI
 
 
 
CITY SKY/WX TMP DP RH WIND PRES REMARKS
 
CAPE GIRARDEAU CLOUDY 76 71 85 NE14 29.94S  
6HR MIN TEMP: 74; 6HR MAX TEMP: 78; 6HR PCP: 0.44;  
 
FARMINGTON CLOUDY 69 66 90 N12 30.05R  
6HR MIN TEMP: 67; 6HR MAX TEMP: 73; 6HR PCP: 0.51;  
 
POPLAR BLUFF LGT RAIN 76 75 97 N14 29.95S  
6HR MIN TEMP: 75; 6HR MAX TEMP: 82; 6HR PCP: 0.25;  
 
WEST PLAINS CLOUDY 73 67 81 N14G25 30.06R  
6HR MIN TEMP: 71; 6HR MAX TEMP: 78; 6HR PCP: 0.01;  
 
 

 
 
 
CLICK HERE TO GO TO PREVIOUS BULLETINS.

The Nexlab MO Page Main Text Page